Location: Rocktram
(38.2574°N, 122.2805°W)
Time: 21:14:18
(UTC+00:00)

Cosmos 1943 Rocket - Pass Details

Date: 30 March 2020
Orbit: 811 x 844 km, 71.0° (Epoch: 30 May)

Event Time Altitude Azimuth Distance (km) Brightness Sun altitude
Rises 04:42:57 0° 338° (NNW) 3,350 6.0 -25.6°
Reaches altitude 10° 04:45:23 10° 340° (NNW) 2,418 5.2 -26.1°
Enters shadow 04:50:51 79° 55° (NE) 843 2.0 -27.0°
